CGXMF CYXU-CYXU

Flight info

Callsign CGXMF
Flight time 0h 4m
Altitude 1900
Route VFR CIRCUITS
Aircraft C172

Departure

Time 2026-05-04 23:25
Airport London International Airport (CYXU)

Arrival

Time 2026-05-04 23:30
Airport London International Airport (CYXU)
Time Latitude Longitude Altitude Speed Heading
2026-05-04 23:14 43.03565 -81.16462 906 ft 0 kts 333°
2026-05-04 23:15 43.03566 -81.16463 906 ft 1 kts 347°
2026-05-04 23:16 43.03576 -81.16458 906 ft 6 kts 26°
2026-05-04 23:16 43.03611 -81.16373 906 ft 13 kts 83°
2026-05-04 23:16 43.03630 -81.16261 905 ft 10 kts 77°
2026-05-04 23:16 43.03642 -81.16170 903 ft 11 kts 77°
2026-05-04 23:17 43.03658 -81.16061 902 ft 12 kts 81°
2026-05-04 23:17 43.03673 -81.15938 901 ft 14 kts 79°
2026-05-04 23:17 43.03690 -81.15825 899 ft 9 kts 82°
2026-05-04 23:17 43.03718 -81.15737 898 ft 11 kts 28°
2026-05-04 23:18 43.03781 -81.15786 898 ft 10 kts 320°
2026-05-04 23:18 43.03829 -81.15844 899 ft 8 kts 319°
2026-05-04 23:18 43.03866 -81.15892 900 ft 7 kts 317°
2026-05-04 23:18 43.03906 -81.15939 900 ft 7 kts 322°
2026-05-04 23:19 43.03943 -81.15982 901 ft 7 kts 324°
2026-05-04 23:19 43.03975 -81.16010 903 ft 4 kts 339°
2026-05-04 23:19 43.03993 -81.16017 903 ft 1 kts 345°
2026-05-04 23:19 43.03997 -81.16018 904 ft 2 kts 359°
2026-05-04 23:20 43.04021 -81.16019 905 ft 3 kts 358°
2026-05-04 23:20 43.04037 -81.16016 905 ft 2 kts
2026-05-04 23:20 43.04053 -81.16014 906 ft 8 kts
2026-05-04 23:20 43.04126 -81.15967 907 ft 18 kts 54°
2026-05-04 23:21 43.04043 -81.15780 903 ft 36 kts 140°
2026-05-04 23:21 43.03844 -81.15532 905 ft 41 kts 158°
2026-05-04 23:21 43.03612 -81.15304 904 ft 46 kts 140°
2026-05-04 23:21 43.03353 -81.14963 906 ft 56 kts 136°
2026-05-04 23:22 43.03049 -81.14584 921 ft 61 kts 140°
2026-05-04 23:22 43.02714 -81.14186 913 ft 67 kts 137°
2026-05-04 23:22 43.02377 -81.13789 960 ft 63 kts 139°
2026-05-04 23:22 43.02354 -81.13267 996 ft 61 kts 28°
2026-05-04 23:23 43.02639 -81.13137 898 ft 1 kts 248°
2026-05-04 23:23 43.02640 -81.13135 895 ft 0 kts 233°
2026-05-04 23:23 43.02639 -81.13169 895 ft 18 kts 273°
2026-05-04 23:23 43.02641 -81.13511 902 ft 54 kts 266°
2026-05-04 23:24 43.02854 -81.13944 991 ft 71 kts 334°
2026-05-04 23:24 43.03364 -81.14109 1148 ft 79 kts 346°
2026-05-04 23:24 43.03887 -81.14384 1315 ft 82 kts 329°
2026-05-04 23:24 43.04391 -81.14781 1453 ft 88 kts 327°
2026-05-04 23:25 43.04926 -81.15295 1507 ft 95 kts 326°
2026-05-04 23:25 43.05527 -81.15750 1562 ft 97 kts 332°
2026-05-04 23:25 43.05680 -81.16504 1428 ft 114 kts 228°
2026-05-04 23:25 43.04974 -81.16603 1262 ft 94 kts 168°
2026-05-04 23:26 43.04422 -81.16240 1031 ft 87 kts 141°
2026-05-04 23:26 43.03993 -81.15730 911 ft 71 kts 139°
2026-05-04 23:26 43.03652 -81.15325 903 ft 77 kts 140°
2026-05-04 23:26 43.03224 -81.14794 992 ft 91 kts 137°
2026-05-04 23:27 43.02770 -81.14202 1135 ft 92 kts 137°
2026-05-04 23:27 43.02300 -81.13540 1132 ft 103 kts 110°
2026-05-04 23:27 43.02620 -81.12789 1205 ft 97 kts 17°
2026-05-04 23:27 43.03112 -81.13264 1230 ft 88 kts 318°
2026-05-04 23:28 43.03547 -81.13826 1386 ft 90 kts 316°
2026-05-04 23:28 43.04054 -81.14405 1441 ft 97 kts 325°
2026-05-04 23:28 43.04612 -81.14968 1463 ft 102 kts 322°
2026-05-04 23:28 43.05190 -81.15529 1544 ft 95 kts 326°
2026-05-04 23:29 43.05374 -81.16346 1284 ft 117 kts 231°
2026-05-04 23:29 43.04769 -81.16520 1207 ft 78 kts 163°
2026-05-04 23:29 43.04345 -81.16152 993 ft 70 kts 139°
2026-05-04 23:29 43.04009 -81.15748 903 ft 54 kts 140°
2026-05-04 23:30 43.03816 -81.15510 900 ft 26 kts 143°
2026-05-04 23:30 43.03682 -81.15374 901 ft 24 kts 134°